Hourly Data Report for September 19, 2017

All times are specified in Local Standard Time (LST). Add 1 hour to adjust for Daylight Saving Time where and when it is observed.

WOODSTOCK NEWBRIDGE
NEW BRUNSWICK

46°09'08.000" N
67°32'34.000" W
154.00 m
8105603
71606
EWD

Download Data

Hourly Data (September 2017)
Hourly Data Report for September 19, 2017
Temp Definition
°C
Dew Point Temp Definition
°C
Rel Hum Definition
%
Wind Dir Definition
10's deg

Wind Spd Definition
km/h
Visibility Definition
km
Stn Press Definition
kPa
Hmdx Definition


Wind Chill Definition


Weather Definition


TIME
00:00 14.5 14.0 97 13 6   100.63     LegendNANA
01:00 14.5 13.9 96 14 5   100.62     LegendNANA
02:00 14.6 14.1 97 16 2   100.58     LegendNANA
03:00 14.8 14.3 97 15 3   100.56     LegendNANA
04:00 15.0 14.5 97 14 4   100.56     LegendNANA
05:00 15.0 14.6 97 12 6   100.56     LegendNANA
06:00 15.2 14.6 97 12 6   100.57     LegendNANA
07:00 15.4 14.9 96 12 5   100.57     LegendNANA
08:00 16.0 15.1 94 13 3   100.57     LegendNANA
09:00 16.9 15.4 91 13 8   100.60     LegendNANA
10:00 18.1 16.0 87 12 5   100.61     LegendNANA
11:00 19.0 16.1 83 15 5   100.58     LegendNANA
12:00 20.0 16.6 81 12 6   100.53 25   LegendNANA
13:00 20.2 16.5 79 23 4   100.45 25   LegendNANA
14:00 21.5 16.8 74 23 6   100.38 27   LegendNANA
15:00 21.7 16.4 72 17 9   100.36 27   LegendNANA
16:00 21.4 16.4 73 17 6   100.34 26   LegendNANA
17:00 21.7 16.2 71 16 8   100.31 26   LegendNANA
18:00 20.7 16.6 77 14 6   100.27 26   LegendNANA
19:00 17.6 15.4 87 0 1   100.28     LegendNANA
20:00 16.5 15.6 95   0   100.31     LegendNANA
21:00 15.4 14.9 97 0 1   100.30     LegendNANA
22:00 14.9 14.3 96   0   100.29     LegendNANA
23:00 15.2 14.9 98   0   100.27     LegendNANA

Notes on Data Quality.

Legend

  • E = Estimated
  • M = Missing
  • NA = Not Available
  • ‡ = Partner data that is not subject to review by the National Climate Archives
Date modified: